sat.trackr.live / text

‹ back to catalog

SNAP-3 EDDIE

NORAD 40972 · 2015-058J

PAYLOAD ACTIVE UNKNOWN

§ Identity

Operator
Country
US
Launch date
2015-10-08
Launch site
AFWTR
Launch vehicle
Mass (kg)
RCS (m²)

Purposes: tech_demo

External: N2YO · Heavens-Above · Gunter

§ Orbital elements

Epoch: 2026-09-03T04:57:56.246400Z

Period
90.32 min
Inclination
64.7330°
Eccentricity
0.0014098
Mean motion
15.94325955 rev/d
Perigee alt
280.8 km
Apogee alt
299.6 km
Semi-major
6,668.3 km
B*
1.1291e-3
RAAN
179.3534°
Arg perigee
299.9323°
Mean anomaly
60.0438°
Rev number
13,130

§ Raw data

SNAP-3 EDDIE1 40972U 15058J   26246.20690100  .00428656  79755-4  11291-2 0  99932 40972  64.7330 179.3534 0014098 299.9323  60.0438 15.94325955131305

JSON: /api/v1/satellites/40972 · /tle

For live sub-satellite position, see the globe view (requires WebGL).

§ Visibility from observer

Set your observer location to see the next 7 days of passes ≥ 10°. The values pass through the URL so the page stays shareable.

No JS? Fill the form by hand. The geolocation button needs JavaScript.